Ukiah, CA

10:37 AM PST on November 19, 2017 (GMT -0800)
Ukiah Municipal

Weather History for KUKI - October, 2013

Change the Weather History Date:

Friday, October 11, 2013

  Actual Average Record
Temperature  
Mean Temperature 58 °F 62 °F  
Max Temperature 77 °F 80 °F 98 °F (1917)
Min Temperature 38 °F 44 °F 32 °F (1930)
Degree Days  
Heating Degree Days 8 4  
Month to date heating degree days 34  
Since 1 July heating degree days 67  
Cooling Degree Days 0 1  
Month to date cooling degree days 16  
Year to date cooling degree days 829  
Growing Degree Days 7 (Base 50)    
Moisture  
Dew Point 39 °F    
Average Humidity 57    
Maximum Humidity 86    
Minimum Humidity 27    
Precipitation  
Precipitation 0.00 in 0.05 in 2.95 in (1962)
Month to date precipitation 0.00 0.20  
Year to date precipitation 6.16 24.17  
Since 1 July precipitation 0.58  
Snow  
Snow 0.00 in - - ()
Month to date snowfall 0.0  
Since 1 July snowfall 0.0  
Since 1 September snowfall 0.0  
Snow Depth -    
Sea Level Pressure  
Sea Level Pressure 30.02 in    
Wind  
Wind Speed 1 mph (North)    
Max Wind Speed 13 mph    
Max Gust Speed 15 mph    
Visibility 10 miles    
Events      
T = Trace of Precipitation, MM = Missing Value Source: NWS Daily Summary

Daily Weather History Graph

Daily Weather History Graph

Search for Another Location

Airport or City:

Trip Planner

Search our weather history database for the weather conditions in past years. The results will help you decide how hot, cold, wet, or windy it might be!

Date:

Astronomy

Oct. 11, 2013 Rise Set
Actual Time 7:18 AM PDT 6:39 PM PDT
Civil Twilight 6:51 AM PDT 7:06 PM PDT
Nautical Twilight 6:20 AM PDT 7:37 PM PDT
Astronomical Twilight 5:49 AM PDT 8:08 PM PDT
Moon 2:03 PM PDT (10/11) No Moon Set
Length of Visible Light 12h 14m
Length of Day
11h 20m
Waxing Crescent, 48% of the Moon is Illuminated
Oct 11
Waxing Crescent
Oct 11
First Quarter
Oct 18
Full
Oct 26
Last Quarter
Nov 3
New

Hourly Weather History & Observations

Time (PDT) Temp. Dew Point Humidity Pressure Visibility Wind Dir Wind Speed Gust Speed Precip Events Conditions
12:56 AM 48.0 °F 39.0 °F 71% 30.00 in 10.0 mi Calm Calm - N/A   Clear
1:56 AM 45.0 °F 37.0 °F 74% 30.01 in 10.0 mi Calm Calm - N/A   Clear
2:56 AM 46.0 °F 37.9 °F 73% 30.01 in 10.0 mi Calm Calm - N/A   Clear
3:56 AM 41.0 °F 37.0 °F 86% 30.02 in 10.0 mi Calm Calm - N/A   Clear
4:56 AM 39.9 °F 36.0 °F 86% 30.03 in 10.0 mi Calm Calm - N/A   Clear
5:56 AM 39.9 °F 36.0 °F 86% 30.04 in 10.0 mi Calm Calm - N/A   Clear
6:56 AM 39.0 °F 36.0 °F 89% 30.05 in 10.0 mi Calm Calm - N/A   Clear
7:56 AM 39.9 °F 36.0 °F 86% 30.06 in 10.0 mi Calm Calm - N/A   Clear
8:56 AM 46.0 °F 37.9 °F 73% 30.09 in 10.0 mi Calm Calm - N/A   Clear
9:56 AM 52.0 °F 39.0 °F 61% 30.08 in 10.0 mi Calm Calm - N/A   Clear
10:56 AM 60.1 °F 39.9 °F 47% 30.07 in 10.0 mi Calm Calm - N/A   Clear
11:56 AM 64.9 °F 39.9 °F 40% 30.05 in 10.0 mi East 3.5 mph - N/A   Clear
12:56 PM 69.1 °F 39.0 °F 33% 30.02 in 10.0 mi Calm Calm - N/A   Clear
1:56 PM 73.9 °F 37.9 °F 27% 29.99 in 10.0 mi Variable 3.5 mph - N/A   Clear
2:56 PM 75.0 °F 39.0 °F 27% 29.97 in 10.0 mi Calm Calm - N/A   Clear
3:56 PM 75.0 °F 42.1 °F 31% 29.97 in 10.0 mi NNW 10.4 mph - N/A   Clear
4:56 PM 73.0 °F 42.1 °F 33% 29.96 in 10.0 mi West 8.1 mph - N/A   Clear
5:56 PM 69.1 °F 43.0 °F 39% 29.96 in 10.0 mi NE 5.8 mph - N/A   Clear
6:56 PM 63.0 °F 42.1 °F 46% 29.98 in 10.0 mi North 5.8 mph - N/A   Clear
7:56 PM 59.0 °F 42.1 °F 53% 30.00 in 10.0 mi Calm Calm - N/A   Clear
8:56 PM 57.0 °F 42.1 °F 57% 30.00 in 10.0 mi Calm Calm - N/A   Clear
9:56 PM 54.0 °F 41.0 °F 62% 30.01 in 10.0 mi Calm Calm - N/A   Clear
10:56 PM 52.0 °F 42.1 °F 69% 30.02 in 10.0 mi Calm Calm - N/A   Clear
11:56 PM 48.0 °F 42.1 °F 80% 30.01 in 10.0 mi Calm Calm - N/A   Clear